Location: Forest
(37.3641°N, 79.2902°W)
Time: 20:10:36
(UTC+00:00)

Explorer 11/Cluster Stage 4 - Pass Details

Date: 09 November 2024
Orbit: 464 x 1202 km, 28.8° (Epoch: 03 December)

Event Time Altitude Azimuth Distance (km) Brightness Sun altitude
Rises 10:59:59 0° 225° (SW) 2,679 9.0 -10.5°
Reaches altitude 10° 11:03:12 10° 199° (SSW) 1,691 8.3 -9.8°
Maximum altitude 11:05:13 14° 167° (SSE) 1,423 8.3 -9.5°
Drops below altitude 10° 11:07:10 10° 134° (SE) 1,617 9.3 -9.1°
Sets 11:10:07 0° 107° (ESE) 2,474 11.7 -8.5°
